Regional Weather Roundup
Issued by NWS

Home | Current Version | Previous Version | Graphics & Text | Print | Product List | Glossary Off
Versions: 1 2 3 4 5 6 7 8 9 10 11 12 13 14 15 16 17 18 19 20 21 22 23 24 25 26 27 28 29 30 31 32 33 34 35 36 37 38 39 40 41 42 43 44 45 46 47 48 49 50

000
ASUS43 KLSX 280610
RWRMO

WEATHER SUMMARY FOR MISSOURI
NATIONAL WEATHER SERVICE SPRINGFIELD MO
100 AM CDT THU JUL 28 2016

NOTE: "FAIR" INDICATES FEW OR NO CLOUDS BELOW 12,000 FEET WITH NO
       SIGNIFICANT WEATHER AND/OR OBSTRUCTIONS TO VISIBILITY.
       CURRENT SKY AND/OR WEATHER CONDITIONS ARE NOT AVAILABLE FOR
       CHILLICOTHE AND FARMINGTON.

MOZ001>031-035>038-043-044-053-054-280700-
...NORTHERN AND WESTERN MISSOURI...

CITY           SKY/WX    TMP DP  RH WIND       PRES   REMARKS
KANSAS CTY INT PTCLDY    76  71  85 CALM      29.96S
6HR MIN TEMP:  73; 6HR MAX TEMP:  86;

KANSAS C DTWN  CLEAR     80  70  71 E3        29.94S
6HR MIN TEMP:  79; 6HR MAX TEMP:  89;

LEE`S SUMMIT   CLEAR     79  71  76 SE3       29.96F
6HR MIN TEMP:  78; 6HR MAX TEMP:  90;

ST JOSEPH      PTCLDY    73  71  93 CALM      29.95S
6HR MIN TEMP:  73; 6HR MAX TEMP:  86;

CHILLICOTHE      N/A     73  72  96 CALM      29.95F
6HR MIN TEMP:  73; 6HR MAX TEMP:  88;

KIRKSVILLE     CLEAR     70  68  93 CALM      29.95F
6HR MIN TEMP:  70; 6HR MAX TEMP:  88;


$$
MOZ066>068-077>081-088>096-101>105-280700-
...SOUTHWEST MISSOURI...

CITY           SKY/WX    TMP DP  RH WIND       PRES   REMARKS
SPRINGFIELD    PTCLDY    74  70  87 CALM      29.97S
6HR MIN TEMP:  73; 6HR MAX TEMP:  82;

JOPLIN         CLOUDY    73  71  93 CALM      29.97R
6HR MIN TEMP:  72; 6HR MAX TEMP:  83;

BRANSON        CLOUDY    73  72  94 CALM      29.99S

$$
MOZ032>034-039>042-045>050-055>058-069>072-280700-
...CENTRAL MISSOURI...

CITY           SKY/WX    TMP DP  RH WIND       PRES   REMARKS
COLUMBIA       CLEAR     75  73  93 SE7       29.94S
6HR MIN TEMP:  75; 6HR MAX TEMP:  87;

JEFFERSON CITY PTCLDY    78  75  90 SE6       29.93S
6HR MIN TEMP:  78; 6HR MAX TEMP:  87;

ROLLA          PTCLDY    72  68  87 SW8       29.95S
6HR MIN TEMP:  72; 6HR MAX TEMP:  86;

SEDALIA        CLEAR     77  73  87 NW3       29.95F
6HR MIN TEMP:  76; 6HR MAX TEMP:  89;

WHITEMAN AFB   PTCLDY    75  75 100 N2        29.93F
OSAGE BEACH    PTCLDY    74  71  91 S3        29.96S

$$
MOZ051-052-059>065-280700-
...EAST CENTRAL MISSOURI...

CITY           SKY/WX    TMP DP  RH WIND       PRES   REMARKS
ST LOUIS INTL  CLOUDY    78  69  73 E5        29.92F THUNDER
6HR MIN TEMP:  78; 6HR MAX TEMP:  87; 6HR PCP: TRACE;

SPIRIT OF STL  PTCLDY    75  74  96 W3        29.91S
6HR MIN TEMP:  75; 6HR MAX TEMP:  85;

ST CHARLES     PTCLDY    77  73  87 SE3       29.91S
6HR MIN TEMP:  77; 6HR MAX TEMP:  88;


$$
MOZ072>076-082>087-097>100-106>115-280700-
...SOUTH CENTRAL AND SOUTHEAST MISSOURI...

CITY           SKY/WX    TMP DP  RH WIND       PRES   REMARKS
CAPE GIRARDEAU CLOUDY    75  73  93 CALM      29.91F
6HR MIN TEMP:  74; 6HR MAX TEMP:  76; 6HR PCP:  0.48;

FARMINGTON     CLOUDY    74  72  93 CALM      29.96S
6HR MIN TEMP:  74; 6HR MAX TEMP:  81;

POPLAR BLUFF   CLOUDY    75  73  93 NW8       29.92S
6HR MIN TEMP:  75; 6HR MAX TEMP:  83; 6HR PCP:  1.45;

WEST PLAINS    CLOUDY    72  69  90 NW3       29.99S
6HR MIN TEMP:  72; 6HR MAX TEMP:  74; 6HR PCP: TRACE;


$$



USA.gov is the U.S. government's official web portal to all federal, state and local government web resources and services.